Theta_e
265 264 264 264 264 264 264 264 264 264 264 264 263 262 262 262 262 262 262 262 262 262 262 261 262 262 262 261 261 261 260 260 261 261 261 261 261 261 260 261 260 260 260 260 260 260 260 260 260 259 259 259 259 259 259 259 258 259 259 258 258 258 258 257 257 257 258 258 258 257 258 257 257 258 258 257 257 258 258 258 258 259 259 259 260
264 263 263 263 263 263 263 263 263 263 263 263 262 262 262 261 261 261 261 261 261 261 261 261 261 261 261 260 260 260 260 260 260 260 261 260 260 260 260 260 259 259 259 259 259 259 259 258 258 258 258 258 257 257 257 257 257 257 257 257 256 257 257 257 256 256 256 257 257 256 256 256 256 257 257 257 257 257 257 257 258 258 258 259 259
263 263 263 262 262 263 263 262 262 262 262 262 261 261 261 261 261 261 261 260 260 260 260 260 260 260 260 259 259 259 259 260 260 260 260 260 259 259 259 258 258 258 258 258 258 258 257 257 257 257 257 257 256 256 256 256 256 256 256 256 256 255 256 256 255 255 255 255 255 255 255 255 255 256 256 256 257 257 257 257 257 257 258 258 258
262 262 262 262 262 262 262 261 262 262 261 261 260 260 260 260 260 260 260 260 260 260 260 260 260 260 260 259 259 259 259 259 259 259 259 259 259 258 258 258 258 257 257 257 257 257 257 256 256 255 255 255 255 255 255 255 255 255 255 255 255 255 255 255 254 254 254 254 254 254 254 255 255 255 256 256 256 256 256 256 257 257 257 257 257
262 262 261 261 261 261 261 261 261 261 260 260 259 259 259 259 259 260 260 259 259 259 260 260 260 260 259 259 259 259 258 259 259 259 258 258 258 258 258 258 257 257 257 257 256 256 256 255 255 255 254 254 255 254 255 255 255 255 254 254 254 254 254 254 254 254 253 253 253 254 254 254 254 255 255 255 255 255 256 256 256 256 257 257 257
261 261 261 261 260 260 260 260 260 260 259 259 259 259 259 259 259 259 259 259 259 259 259 259 259 259 258 258 258 258 258 258 258 258 258 258 258 258 257 257 257 257 256 256 256 255 255 255 254 254 254 254 254 254 254 254 254 254 254 254 254 253 253 253 253 253 253 253 253 253 253 254 254 254 255 255 255 255 256 256 256 256 257 257 257
261 261 261 260 260 259 259 259 259 259 259 259 259 259 259 259 259 258 258 258 258 258 258 258 258 258 258 258 258 258 258 258 258 258 258 258 257 257 257 257 257 257 256 255 255 255 254 254 253 253 253 253 253 254 254 254 254 254 253 253 253 253 253 253 253 253 252 252 252 253 253 253 253 254 254 255 254 255 255 256 255 256 256 257 257
261 260 260 260 259 259 259 259 259 259 258 258 258 258 258 258 258 257 257 257 257 257 257 257 257 257 257 257 258 258 258 258 258 258 258 257 257 257 257 257 256 256 255 255 255 254 254 253 253 253 253 253 253 253 254 253 253 253 253 253 253 253 253 253 253 253 252 252 252 252 253 253 253 253 254 254 254 255 255 255 255 256 256 256 257
261 260 260 259 259 258 258 258 258 258 258 257 257 257 257 256 256 256 256 256 255 255 255 256 256 257 257 257 258 258 259 258 258 258 257 257 257 257 256 256 256 256 255 254 254 254 253 253 253 253 252 253 253 253 253 253 252 252 253 253 253 253 253 252 252 252 252 252 252 252 252 252 253 253 253 254 254 254 255 255 255 256 256 256 257
260 260 259 258 258 258 257 257 257 257 257 256 256 256 256 255 255 255 255 255 255 255 255 256 256 257 257 257 257 258 259 259 258 258 257 257 257 256 256 256 256 255 255 254 254 253 253 252 252 252 252 252 252 252 252 252 252 252 252 252 253 253 252 252 252 252 252 252 252 252 252 252 253 253 253 254 254 254 255 255 255 256 256 256 256
259 258 257 256 256 256 256 256 256 256 255 255 255 255 255 255 254 254 254 254 255 255 255 256 256 256 256 257 257 258 259 259 259 258 257 257 257 256 256 256 255 255 254 254 254 253 253 252 252 252 252 252 252 252 252 252 252 253 253 253 253 253 252 252 252 252 252 252 252 252 252 252 253 254 254 254 254 254 255 255 255 256 256 256 256
258 257 256 256 256 256 255 255 255 255 255 254 254 254 254 254 254 254 254 254 254 254 255 255 255 255 255 256 256 257 258 259 260 259 258 257 256 256 256 256 255 254 254 253 253 253 253 253 252 252 252 252 251 252 252 253 253 253 253 253 253 253 253 253 253 252 252 252 252 252 252 253 253 254 254 254 254 254 255 255 256 256 256 255 255
257 256 255 255 255 255 255 255 255 254 254 254 254 254 254 254 254 254 254 253 253 253 253 254 254 254 255 255 256 256 257 258 259 260 259 257 256 256 256 255 255 254 254 253 253 253 253 253 253 252 252 252 252 252 252 253 253 253 253 253 253 253 253 253 253 253 252 252 252 253 253 254 254 254 254 254 254 254 255 255 255 255 254 254 254
257 256 255 255 255 255 255 255 255 254 254 254 254 254 254 254 254 253 253 252 252 252 253 253 254 254 254 255 255 256 257 257 257 259 259 257 256 256 256 255 255 254 253 253 253 253 253 253 253 253 252 252 252 252 253 254 253 253 253 253 253 253 253 254 253 253 253 253 253 254 254 255 255 254 254 254 254 254 254 254 254 253 253 253 253
256 255 255 255 255 255 255 255 254 254 254 254 253 253 253 253 253 252 252 252 252 252 252 253 253 253 253 254 254 255 256 256 256 258 259 257 256 256 255 255 254 254 253 253 252 253 253 253 253 253 253 253 252 253 254 254 253 253 253 254 253 253 253 253 253 253 253 254 254 254 255 255 255 254 254 254 254 254 254 253 252 252 252 252 252
256 255 255 254 254 254 254 255 254 254 254 253 253 252 252 252 252 252 252 252 252 252 252 252 253 253 253 253 254 254 255 255 256 257 258 257 256 256 255 254 254 254 253 253 253 253 253 253 253 253 253 253 253 254 254 254 254 254 254 254 253 253 253 253 253 253 254 254 255 255 255 255 255 254 254 254 254 253 252 252 252 251 251 251 251
255 255 255 254 254 254 254 254 254 254 253 253 252 252 252 252 252 251 251 252 252 251 252 252 252 253 253 253 253 253 254 255 256 257 257 257 256 255 254 254 254 253 253 253 253 253 252 252 252 253 253 254 254 254 255 255 255 254 254 253 253 253 253 253 253 253 253 253 253 254 254 254 254 254 254 254 253 252 251 251 251 251 250 250 250
255 255 255 254 254 254 254 254 254 253 252 252 252 252 251 252 252 251 251 252 252 251 251 251 252 252 252 253 253 253 253 254 256 256 257 256 255 254 254 253 253 253 253 253 253 253 253 252 252 253 253 254 254 254 255 255 255 254 254 253 253 253 253 253 252 252 252 252 253 253 253 253 253 253 253 253 252 251 250 250 250 250 249 249 249
255 255 255 254 254 254 253 253 253 252 252 252 252 252 251 252 252 252 251 251 251 251 251 251 252 252 252 252 253 253 253 254 255 255 255 256 255 254 254 253 253 253 253 253 253 253 253 253 253 252 253 254 254 254 255 255 255 254 254 253 253 253 253 252 252 252 252 252 253 253 253 253 253 253 252 252 252 251 250 249 249 249 249 249 249
255 255 254 254 253 253 252 252 252 252 252 252 252 252 252 252 252 251 251 251 251 251 251 251 251 252 252 252 252 252 253 253 254 254 254 255 255 254 253 253 252 252 252 252 253 253 253 253 253 252 253 253 254 254 255 256 255 254 254 253 253 253 252 252 252 252 251 252 252 253 253 253 253 253 252 252 251 251 250 249 249 249 249 249 249
254 254 253 253 252 252 252 252 252 252 252 252 252 252 251 251 251 251 251 251 251 251 251 251 251 252 252 252 252 252 252 253 253 253 253 254 254 254 253 252 252 252 252 252 252 253 253 253 253 253 253 253 253 254 255 256 255 254 254 253 253 253 252 252 252 252 251 251 252 252 253 253 253 252 251 251 250 250 250 249 249 248 248 248 248
254 253 253 252 252 252 251 251 252 252 252 252 252 251 251 251 251 251 251 251 251 251 251 252 252 252 252 252 252 252 252 252 253 253 253 253 253 253 253 252 252 252 252 252 253 252 252 253 253 253 253 253 253 254 255 254 254 253 253 253 253 252 251 251 251 251 251 251 251 252 251 251 251 251 250 250 249 249 249 249 249 248 248 248 247
253 253 252 252 251 251 251 251 251 251 251 251 251 251 251 251 251 251 251 251 251 251 252 252 252 252 252 252 252 252 252 252 252 253 253 253 253 253 252 252 252 252 252 252 252 252 252 253 253 253 253 252 252 253 253 253 253 253 253 252 252 251 251 251 251 251 251 250 250 250 250 250 249 249 249 249 248 249 249 249 249 248 248 248 247
252 252 252 252 251 251 251 251 251 251 251 251 251 251 251 251 251 251 251 251 252 252 252 252 252 252 252 252 252 252 252 252 252 252 252 252 252 252 252 252 252 252 252 252 252 252 252 253 253 253 253 253 252 253 253 252 252 252 252 252 251 251 251 251 251 250 250 250 249 249 249 249 248 248 248 248 248 248 248 249 248 248 248 247 247
252 252 251 251 251 251 251 251 250 251 251 250 251 250 250 251 251 251 251 251 252 252 252 252 252 252 252 252 252 252 252 252 252 251 251 252 252 252 252 252 251 251 251 252 252 252 252 252 252 252 253 253 252 252 253 252 252 252 252 251 251 251 251 250 250 250 249 249 248 248 248 249 248 248 248 248 248 248 248 248 248 248 247 247 247
252 251 251 251 250 250 250 250 250 250 250 250 250 250 250 251 251 251 251 251 252 252 252 252 252 252 252 252 252 252 252 252 252 251 251 251 251 251 251 252 251 251 251 252 252 252 252 252 252 253 253 252 252 252 252 252 252 252 252 251 251 251 251 250 250 249 249 248 248 248 248 248 248 248 248 248 248 248 248 247 247 247 247 246 246
252 251 251 250 250 250 250 250 250 250 250 250 250 250 251 251 251 251 251 251 251 252 252 252 252 252 252 252 252 253 253 252 252 251 251 251 251 251 252 252 251 251 251 252 252 252 252 253 253 252 252 252 252 252 252 252 252 252 252 252 251 251 251 250 249 249 248 248 248 248 248 248 248 248 248 248 247 248 247 247 246 246 246 246 246
252 251 251 250 250 250 250 250 250 250 250 250 250 251 251 251 251 251 251 251 251 251 251 252 251 251 251 252 252 252 253 253 252 251 252 252 252 251 251 251 251 251 251 251 251 252 252 252 252 252 252 252 252 253 253 253 252 252 252 252 251 251 251 250 250 249 248 248 248 248 248 248 248 248 248 247 247 247 247 247 246 246 246 246 246
251 251 250 250 250 250 250 250 250 250 250 250 250 251 251 250 251 251 251 251 251 252 251 252 251 251 251 251 251 251 252 253 252 251 251 251 251 250 250 250 250 250 250 250 250 251 251 251 252 252 252 252 253 253 253 253 252 252 252 252 251 251 251 250 250 249 249 248 248 248 248 248 248 248 247 247 247 247 247 247 246 246 246 246 245
251 250 250 250 250 250 250 250 250 250 250 250 250 250 251 251 251 252 251 251 251 252 252 252 252 251 251 251 251 251 251 252 252 251 251 251 250 250 250 250 250 250 250 249 249 250 250 251 251 251 251 251 252 252 252 252 252 252 252 251 251 251 251 250 249 249 249 248 248 248 247 247 247 247 247 247 247 247 247 247 246 246 246 246 245
251 250 250 250 250 250 250 250 250 250 250 250 250 250 250 251 251 251 252 252 251 251 251 251 251 250 250 251 250 250 251 251 251 251 251 250 250 250 250 250 250 250 250 249 249 250 250 250 251 251 251 251 251 251 251 251 251 251 251 251 251 251 250 250 249 249 248 248 248 248 248 247 247 247 247 247 247 247 247 247 246 246 246 246 245
252 251 251 250 250 250 250 250 250 250 250 250 250 250 250 251 251 251 251 251 251 251 251 251 251 250 250 250 250 250 250 250 250 250 250 250 250 250 250 250 251 250 250 249 249 250 250 250 250 251 251 251 251 251 251 251 251 250 250 251 251 251 250 250 249 249 248 248 248 248 248 247 247 247 247 247 247 247 247 247 246 246 246 246 245
252 252 251 250 250 250 250 250 250 250 250 249 250 250 250 250 251 251 251 251 251 251 251 251 251 251 251 251 250 250 250 250 250 251 251 251 251 251 251 250 250 250 250 249 249 250 250 250 250 251 251 251 251 251 251 250 250 250 250 250 250 251 250 250 249 249 249 248 248 248 248 248 247 247 247 247 247 246 246 246 246 246 246 246 246
251 251 251 251 250 250 250 250 250 249 249 249 250 250 250 250 250 250 251 252 252 252 252 252 251 251 251 251 251 251 251 251 251 251 251 251 251 251 250 250 250 250 250 250 250 250 250 250 251 251 251 251 251 250 250 250 250 250 250 250 250 250 250 250 249 249 249 248 248 248 248 248 247 247 247 247 247 246 246 246 246 246 246 246 246
250 250 250 250 250 250 250 250 250 250 250 250 250 250 250 250 250 250 250 250 251 253 253 253 252 252 252 252 252 252 251 251 251 251 251 251 251 250 250 250 250 250 250 250 250 250 250 250 251 251 251 251 251 250 250 250 250 250 250 250 250 250 250 250 249 249 249 248 248 248 248 248 247 247 247 247 247 247 246 246 246 246 246 246 246
250 250 250 250 250 250 250 250 250 250 250 250 250 250 250 250 250 250 250 250 250 251 253 254 253 253 252 252 252 252 251 251 251 251 251 251 250 250 249 249 250 250 250 250 250 250 250 250 251 251 251 251 251 251 250 250 250 250 250 250 249 249 249 249 249 249 249 248 248 248 248 248 248 247 247 247 247 247 246 246 246 246 247 247 247
250 250 251 251 250 250 250 250 250 250 250 250 250 250 250 250 250 250 250 250 250 250 251 252 253 253 254 253 252 251 251 251 251 251 251 251 250 250 250 249 250 250 250 250 250 250 250 251 251 251 251 251 251 251 250 250 250 250 250 250 249 249 249 249 249 249 248 248 248 248 248 248 248 247 247 247 247 247 247 247 247 247 247 247 247
250 250 250 250 250 250 250 250 250 250 250 250 250 250 250 250 250 250 250 250 250 250 250 251 251 252 253 253 252 251 251 251 251 252 251 251 251 251 250 250 250 250 250 251 251 250 251 251 251 251 251 251 251 251 251 251 250 250 250 250 249 249 249 249 249 249 248 248 248 248 248 248 248 247 247 247 247 247 247 247 247 247 247 247 247
250 250 250 250 250 250 250 250 250 250 250 250 250 250 250 250 250 250 250 250 250 250 250 250 251 252 253 252 252 251 251 251 251 252 252 252 252 251 251 251 250 251 251 251 251 250 250 251 251 251 251 251 251 251 251 250 250 250 250 250 249 249 249 249 249 249 249 248 248 248 248 248 248 247 247 247 247 247 247 247 247 247 247 247 247
250 250 250 250 250 250 250 250 250 250 250 250 250 250 250 250 250 250 250 249 249 250 250 250 251 252 252 252 251 250 250 250 251 251 251 252 252 251 251 251 251 251 251 251 251 251 250 250 251 251 251 251 251 251 251 250 250 250 250 250 249 249 249 249 249 249 248 248 248 248 248 248 247 247 247 247 247 247 247 247 247 247 247 247 247
251 250 250 250 250 250 250 250 250 251 250 250 250 250 250 250 250 250 249 249 249 250 250 250 252 253 252 252 251 250 249 250 250 250 251 251 251 251 251 251 251 251 251 251 251 251 250 250 250 250 251 251 251 251 251 250 250 250 250 250 249 249 249 249 249 249 248 248 248 248 248 248 247 247 247 247 247 247 247 247 247 247 247 247 247
251 250 250 250 250 250 250 250 251 251 250 250 250 250 250 250 250 249 249 249 249 249 250 251 252 253 252 252 251 251 250 250 250 250 251 251 251 251 251 251 251 251 251 251 251 251 250 250 250 250 250 251 250 250 250 250 250 250 250 249 249 249 249 249 249 249 249 248 248 248 248 247 247 247 247 247 247 247 247 247 247 247 247 247 247
250 250 250 250 250 250 250 251 250 250 250 250 250 250 250 250 250 250 250 250 250 250 250 251 252 252 252 252 252 251 251 251 251 251 251 251 251 251 252 252 252 251 251 251 251 251 250 250 250 250 250 251 250 250 250 250 250 250 249 249 249 249 249 249 249 249 249 248 248 248 247 247 247 247 247 247 247 247 247 247 247 247 247 247 247
251 250 250 250 250 250 250 250 250 250 250 250 250 250 250 250 250 250 250 250 250 250 250 251 251 252 252 252 252 251 251 251 251 251 251 251 251 252 252 252 252 252 251 251 251 251 250 250 251 251 251 251 251 251 251 250 250 250 249 249 249 249 250 250 250 249 249 248 247 248 247 247 247 247 246 247 247 247 247 247 247 247 247 247 247
251 251 250 250 250 250 250 250 250 250 250 250 250 250 251 250 251 251 250 250 250 250 251 251 251 251 251 252 252 251 251 251 251 251 251 251 251 252 252 252 252 252 252 252 251 251 251 251 251 251 251 251 251 251 251 251 250 250 250 250 249 250 250 250 250 249 248 248 247 247 247 247 247 247 246 247 247 246 247 247 247 246 247 247 247
251 251 251 251 251 251 251 251 250 250 250 250 250 251 251 251 251 251 251 251 251 250 251 251 251 251 251 251 251 251 251 251 251 251 251 251 251 252 252 252 252 252 252 252 252 251 251 251 251 251 251 251 251 251 251 251 251 251 251 250 250 250 251 251 250 249 249 248 248 247 247 247 247 247 246 246 246 246 246 246 246 246 246 246 247
251 251 251 251 251 251 251 251 251 251 251 251 251 251 251 252 251 251 251 251 251 250 251 251 251 251 251 251 251 251 251 251 250 250 251 251 251 251 252 251 252 252 252 252 252 251 251 251 251 251 251 251 252 252 252 251 251 251 251 251 251 251 251 251 250 249 249 248 248 247 247 247 247 247 246 246 246 246 246 246 246 246 246 246 246
252 251 251 251 251 251 251 251 251 251 251 251 251 251 251 251 251 251 251 251 251 251 251 251 250 250 250 251 251 251 250 250 250 250 250 251 251 251 251 251 251 251 252 252 252 252 252 251 251 251 251 252 252 252 252 252 252 252 252 252 251 251 251 250 250 250 249 249 248 247 247 247 247 247 246 246 246 246 246 246 246 246 246 246 246
252 252 252 252 251 252 252 252 251 251 251 251 251 251 252 251 251 252 251 251 251 251 251 251 251 251 250 250 250 250 250 250 250 250 250 250 250 251 251 251 251 251 251 251 252 252 252 251 251 251 252 252 252 252 252 252 252 252 252 252 252 252 251 251 250 250 249 249 248 248 247 247 247 247 247 246 246 246 246 246 246 246 246 246 246
252 252 252 252 252 252 252 252 251 252 252 251 251 252 252 252 252 252 251 251 251 251 251 251 250 250 250 250 250 250 250 250 250 250 250 250 250 250 250 250 250 251 251 251 251 252 251 251 251 252 252 252 252 252 252 252 252 252 252 252 252 252 251 251 251 251 250 249 249 248 247 247 247 247 246 246 246 246 246 246 246 246 246 246 246
253 252 252 252 252 252 252 252 252 252 252 252 252 252 252 252 252 252 251 251 251 251 251 251 250 250 250 250 250 250 250 250 250 250 250 250 250 250 249 250 250 250 250 251 251 251 251 251 251 252 252 252 252 252 252 252 253 253 252 252 252 252 252 252 251 251 250 250 249 248 247 247 247 246 246 246 246 246 246 246 246 246 246 246 246
Wind_Speed
24 24 24 24 23 23 22 21 20 19 18 18 18 17 16 15 14 13 12 11 11 10 9 9 8 7 8 9 10 11 12 12 12 12 12 13 12 12 11 11 12 12 12 12 11 10 9 10 10 11 11 11 11 13 13 14 15 15 15 16 16 15 16 16 14 20 24 21 22 22 20 23 28 27 28 31 30 27 27 28 30 30 30 30 31
23 23 23 22 22 22 21 20 19 18 17 17 16 16 15 14 13 12 11 11 9 9 9 8 7 6 8 10 11 12 13 13 13 12 12 12 11 11 11 11 12 11 11 11 11 11 11 11 11 11 11 11 11 11 12 13 14 14 14 14 15 14 14 15 16 19 24 23 22 22 22 24 29 28 27 28 28 27 28 29 29 28 29 29 29
23 23 23 21 21 20 19 19 18 17 16 16 15 15 14 13 11 11 11 10 9 8 8 7 6 7 9 11 12 13 13 13 13 12 12 11 11 12 12 12 12 12 12 12 13 13 13 12 11 11 11 11 10 11 11 12 12 13 13 12 13 13 12 14 16 17 22 25 24 25 26 25 27 29 27 26 26 27 28 29 28 27 27 27 29
22 22 22 21 20 19 18 17 16 16 15 15 15 14 13 12 11 10 10 9 8 7 7 6 6 7 9 11 13 14 13 13 13 12 12 11 12 12 12 11 12 13 14 14 14 13 12 11 10 10 11 10 10 11 11 11 12 12 11 11 11 12 12 14 16 17 21 25 26 26 25 25 25 28 29 28 27 27 28 29 28 27 27 27 29
22 21 21 20 19 18 17 16 15 15 15 14 14 13 12 11 10 9 9 8 8 7 6 6 6 7 10 13 14 14 14 13 13 12 11 11 11 11 10 11 13 14 15 14 12 11 11 10 9 10 10 9 9 10 11 11 11 11 11 11 12 13 15 15 16 18 20 23 26 26 24 25 25 28 30 29 29 30 31 29 28 29 30 31 30
21 21 20 20 19 17 16 15 15 14 14 13 12 11 11 10 9 9 8 7 7 6 6 6 7 8 11 14 16 15 15 13 12 11 10 10 10 9 10 12 14 15 15 13 11 10 9 9 9 9 9 9 10 10 11 11 10 10 11 13 13 14 15 15 17 20 21 21 24 26 26 25 26 30 31 29 29 31 32 33 31 30 33 34 32
21 20 20 19 18 16 15 14 13 13 13 12 11 10 10 9 9 9 8 7 7 6 6 7 7 9 12 14 16 15 15 13 11 10 9 8 9 9 10 13 15 15 14 11 10 9 9 9 8 6 7 9 9 9 9 10 10 9 11 14 14 14 16 17 19 22 23 22 23 25 26 26 26 29 31 31 29 28 30 34 36 35 34 33 34
20 19 19 18 17 15 14 13 12 12 12 11 11 10 10 9 9 9 8 8 8 7 7 7 8 9 11 14 16 14 14 13 10 9 8 7 8 9 11 13 16 15 12 10 9 9 8 7 6 5 6 7 7 8 8 9 10 10 10 13 13 13 16 19 21 24 23 23 24 24 24 26 27 29 31 31 30 29 30 32 35 38 37 34 33
19 18 17 17 16 14 13 12 12 12 11 11 11 10 10 9 8 8 8 8 8 8 8 7 7 9 10 13 15 13 13 13 9 8 8 6 6 9 11 13 16 14 10 9 8 8 7 5 5 5 5 5 5 7 7 8 10 11 10 11 12 14 17 19 22 24 23 23 24 24 23 24 26 28 29 29 29 32 34 33 33 36 38 36 31
18 17 17 16 15 14 13 12 12 12 12 11 11 10 10 9 8 8 8 8 8 7 7 7 7 8 9 12 15 13 13 15 10 7 7 5 6 8 11 14 16 13 10 9 8 8 6 4 4 4 3 2 3 6 8 8 7 7 8 9 11 13 16 19 22 23 23 22 23 23 22 22 25 27 28 30 31 32 34 34 33 35 36 32 26
18 17 17 16 14 13 13 13 12 12 12 11 10 10 9 8 8 8 7 7 7 6 7 7 7 7 8 11 14 13 12 17 13 9 6 4 6 6 11 15 15 13 10 10 9 8 6 4 3 3 3 3 4 6 7 6 4 6 8 9 10 12 14 18 21 22 22 22 23 23 22 23 26 28 28 31 32 31 32 34 33 33 29 24 22
19 18 17 15 14 13 13 13 12 12 12 11 10 9 8 8 8 7 6 6 6 6 6 6 7 7 7 10 14 13 12 16 15 8 6 2 4 7 13 16 15 13 11 10 10 9 7 6 4 4 5 5 6 7 5 4 5 7 9 10 12 14 16 18 20 22 23 23 23 24 24 25 27 28 28 30 32 32 32 32 29 26 24 22 23
18 17 16 15 14 13 12 12 12 11 11 11 10 9 8 7 7 6 6 6 5 5 6 6 6 7 7 10 13 13 12 14 13 6 5 4 5 9 15 16 16 14 11 10 10 9 9 9 8 7 6 6 6 5 3 5 8 10 11 13 16 18 20 21 21 20 19 20 22 24 25 26 27 27 28 29 31 32 31 29 26 24 25 25 26
18 17 16 14 13 12 12 11 11 11 10 10 9 9 8 7 6 6 6 6 6 5 5 5 5 6 7 9 12 13 12 12 10 6 5 5 5 12 16 16 15 14 12 10 10 10 10 10 11 10 8 7 6 3 4 9 12 12 13 17 20 21 23 24 22 18 17 18 21 24 25 24 24 27 28 27 28 29 28 27 26 25 27 28 28
17 16 15 14 13 12 11 11 11 10 10 10 9 9 8 7 6 6 6 6 6 5 4 5 5 6 6 7 10 12 11 10 7 7 5 1 6 14 15 15 15 14 12 10 9 10 10 10 12 11 10 9 6 3 8 14 13 12 16 21 22 24 25 24 19 17 18 19 21 23 24 23 24 26 27 25 25 24 24 24 25 26 29 31 30
17 16 15 14 13 12 11 10 10 10 10 10 10 9 9 7 6 6 6 6 5 4 4 5 5 5 6 6 7 9 9 9 7 8 6 3 9 14 14 15 16 14 12 10 9 10 10 11 12 11 11 11 5 4 11 15 12 13 20 22 23 25 26 21 17 16 18 18 19 20 22 24 25 25 24 23 23 23 24 25 26 28 31 32 30
17 15 14 13 12 11 10 10 10 10 10 10 11 10 9 8 6 6 6 5 5 4 4 5 5 5 6 5 5 6 6 10 10 10 7 6 10 14 14 15 17 14 11 11 10 11 11 12 13 12 11 10 5 5 11 15 14 17 20 21 23 26 25 21 19 19 18 17 18 20 22 23 24 24 23 22 22 23 25 27 27 29 29 25 24
17 15 14 13 11 10 10 9 9 10 10 11 11 10 9 8 6 6 6 5 4 5 5 5 5 5 5 5 5 5 5 9 11 9 8 8 11 14 14 15 16 14 12 12 11 12 12 11 12 12 11 10 7 7 12 14 15 16 18 20 24 26 23 22 24 25 24 23 23 22 23 23 23 23 22 21 21 22 22 23 25 26 25 22 22
16 14 13 12 11 10 10 10 10 10 11 11 10 9 8 7 6 6 6 5 5 6 6 5 5 5 5 4 4 4 5 7 10 5 7 9 11 13 15 16 16 15 15 14 13 13 11 11 11 11 11 10 8 8 11 13 15 16 18 21 23 22 21 22 24 26 28 28 27 26 25 24 24 23 23 22 21 21 21 21 22 24 25 25 25
15 14 12 12 11 11 10 10 10 10 10 10 10 8 8 7 7 7 6 5 6 6 5 5 4 4 4 4 3 3 3 4 7 5 3 6 10 14 15 16 16 17 17 17 16 14 12 11 11 11 11 10 8 7 10 14 18 20 20 18 18 19 20 21 23 25 26 27 27 27 26 25 24 24 23 23 23 23 23 23 23 23 25 27 27
15 14 13 12 11 11 11 10 10 10 10 10 9 9 8 7 7 7 6 6 6 5 4 4 3 3 3 3 2 2 2 2 4 5 3 1 7 13 15 15 16 17 17 16 16 15 14 13 12 12 12 11 9 10 14 18 21 20 16 14 15 17 19 21 23 24 24 25 25 25 25 25 25 25 25 26 25 25 26 26 25 25 25 26 28
15 14 13 12 12 11 11 10 10 10 10 10 9 9 8 8 8 7 7 6 6 5 4 3 3 3 2 3 2 2 2 2 2 3 4 3 3 9 13 14 15 16 17 16 15 15 15 15 14 13 13 12 13 15 18 19 19 15 12 13 15 16 17 20 22 22 23 24 24 25 26 26 26 27 27 28 28 28 28 28 27 26 25 24 25
15 14 13 13 12 11 11 10 10 10 10 10 9 9 8 8 8 7 6 5 5 5 4 3 3 3 2 2 2 2 2 2 3 4 4 5 4 4 9 13 13 14 14 15 15 15 15 15 14 15 15 14 15 16 17 16 15 13 12 13 15 16 18 20 20 21 22 23 24 25 26 26 27 28 28 29 29 29 29 29 28 26 25 25 24
15 14 13 12 12 11 11 11 11 10 10 10 9 8 8 8 7 6 5 5 4 4 3 2 2 2 2 2 1 2 2 3 4 5 6 6 5 5 8 10 10 11 12 13 14 15 16 16 15 15 15 14 14 15 15 15 14 14 13 14 15 16 18 19 19 21 22 23 24 25 26 26 27 28 28 29 30 30 29 29 28 27 27 27 27
15 14 13 12 12 12 12 11 11 11 10 9 9 8 8 8 7 5 4 5 4 3 2 1 1 0 0 1 1 2 3 3 4 5 7 8 7 7 8 9 9 11 12 13 14 15 15 16 16 15 15 15 16 16 16 15 14 14 13 14 15 16 17 18 20 21 22 23 24 25 26 27 27 27 28 29 29 30 30 30 30 30 29 30 30
16 14 14 13 13 13 13 12 12 11 11 10 9 9 8 7 7 5 4 4 3 3 2 1 2 2 3 3 3 3 3 3 4 5 7 8 8 9 9 9 9 11 12 13 14 15 15 15 15 15 16 16 17 17 17 16 15 14 13 14 15 16 17 18 19 20 22 23 24 25 27 27 27 28 28 29 29 30 30 31 32 32 31 32 33
16 15 15 14 14 14 13 13 12 11 11 10 9 8 8 7 6 5 4 4 3 3 3 2 3 4 5 5 6 6 4 4 4 6 8 9 9 9 10 10 12 13 13 14 15 16 16 16 15 16 17 17 16 16 16 16 15 14 14 15 15 16 17 18 19 19 20 22 24 26 27 27 28 29 29 29 30 30 29 29 30 31 32 32 32
16 16 16 15 15 14 14 13 13 12 10 9 8 8 7 6 5 5 4 4 4 4 4 4 4 5 7 8 8 8 7 5 6 8 10 10 11 11 13 14 15 15 16 17 18 18 18 18 17 18 17 17 17 16 15 15 15 16 16 16 17 17 18 18 18 19 20 22 24 26 27 28 29 29 29 30 30 30 29 28 29 30 31 30 29
16 16 16 16 15 15 14 12 12 11 9 8 8 7 6 6 6 5 4 5 6 5 6 6 5 6 8 9 9 11 11 9 8 10 12 12 13 14 16 16 16 17 18 19 19 19 19 19 20 19 19 19 18 18 17 17 17 17 17 18 18 19 19 19 20 21 22 23 25 26 27 28 29 29 30 30 30 30 29 28 28 29 30 28 27
17 17 17 16 16 15 14 12 11 10 9 8 8 7 7 6 6 5 5 6 7 7 7 7 7 8 10 11 11 14 15 14 12 13 14 14 14 15 16 17 17 17 18 18 18 18 20 21 21 21 20 20 20 20 20 20 20 21 20 20 20 20 21 21 22 23 24 24 25 26 27 28 29 30 30 30 31 31 29 28 28 28 28 28 27
19 18 18 17 16 15 14 13 11 10 9 8 7 6 6 7 7 7 6 7 8 8 9 9 9 10 12 13 14 16 17 16 16 16 15 15 16 17 18 17 16 17 17 16 17 19 20 21 23 22 21 21 21 21 21 21 22 23 23 23 22 22 22 23 23 24 25 25 26 26 26 27 28 29 29 30 31 31 30 30 29 28 27 27 27
18 18 18 17 16 14 14 12 11 9 8 7 7 6 5 5 6 7 8 7 8 9 9 10 10 11 12 13 14 16 17 17 17 17 16 16 18 18 18 16 15 16 15 15 17 20 21 22 23 23 22 21 21 21 21 22 22 23 24 25 25 23 23 24 24 24 25 25 26 27 27 27 28 29 29 29 30 30 31 30 29 28 28 27 27
16 17 18 17 16 14 13 12 10 9 8 8 7 6 5 4 4 6 7 8 9 9 10 10 11 11 11 12 14 16 16 16 17 17 17 17 18 18 17 16 16 16 16 17 20 22 22 22 23 23 22 22 22 22 22 22 22 23 23 24 25 25 25 25 25 25 25 25 26 27 27 27 28 28 29 29 29 29 30 30 30 29 28 27 28
15 16 17 17 16 14 12 11 10 10 9 9 7 6 5 5 6 6 7 8 9 9 8 8 9 10 11 13 14 15 15 15 15 16 16 17 17 17 17 17 17 17 18 19 21 22 22 23 23 23 22 22 22 22 23 23 23 23 24 24 25 26 26 25 26 26 26 26 26 27 27 27 27 28 29 30 29 29 29 29 29 28 27 27 28
16 16 16 16 15 13 12 11 10 10 10 9 8 7 6 6 7 8 10 11 12 11 9 8 8 10 12 12 12 12 13 13 14 15 15 16 16 16 16 19 20 21 21 20 21 22 22 23 24 23 23 22 22 22 23 23 23 23 24 25 26 26 26 26 27 27 27 27 27 27 27 27 27 27 28 29 29 29 30 29 29 28 28 27 28
17 16 16 15 14 13 12 11 10 10 9 8 8 8 7 8 9 10 11 12 14 15 15 13 11 11 12 11 11 11 12 13 15 16 16 16 15 15 17 20 23 23 24 23 22 22 23 23 23 23 23 23 23 22 23 23 24 24 24 25 26 27 27 27 27 27 27 27 27 27 27 27 27 27 27 28 29 28 29 29 29 28 28 28 28
17 16 15 14 13 12 12 11 10 10 9 9 9 9 9 10 10 11 13 14 15 17 17 17 16 15 13 11 11 12 14 15 16 17 16 16 15 16 18 20 22 24 25 24 23 23 23 23 23 22 22 22 22 22 23 23 23 24 24 25 26 27 27 27 27 27 27 27 28 28 27 27 27 27 27 28 29 29 28 29 28 28 29 28 28
16 15 14 13 13 13 12 12 11 10 10 10 10 10 10 11 12 13 15 15 16 18 18 18 19 19 17 14 13 15 17 17 18 18 17 15 15 16 17 18 20 22 24 24 22 23 23 23 22 21 22 22 22 22 23 23 23 23 24 25 26 27 27 28 28 27 27 28 28 28 28 28 28 27 26 27 28 29 29 29 28 28 29 28 27
17 16 15 14 14 13 13 12 11 11 11 11 11 11 12 13 14 15 16 17 18 19 19 20 21 20 19 17 16 17 19 20 20 19 18 17 17 17 17 18 20 21 23 23 23 23 23 23 22 21 21 22 22 22 23 23 23 24 24 25 27 28 28 28 28 28 28 28 28 28 28 28 28 27 27 27 28 28 29 29 28 27 28 29 29
18 17 16 16 15 13 12 12 12 12 12 12 11 12 14 15 15 16 16 18 19 20 20 22 22 20 19 19 18 19 21 22 22 21 21 21 20 20 20 21 22 22 23 23 23 23 23 23 22 22 22 22 22 22 23 23 24 24 24 25 27 28 29 29 28 28 28 28 28 28 28 28 28 28 27 27 27 27 27 28 28 28 28 30 30
16 16 16 15 14 13 13 13 13 12 12 12 13 13 14 15 15 16 17 19 20 21 22 23 23 21 19 19 19 19 21 24 24 24 24 23 23 23 23 23 23 23 23 23 22 22 23 23 22 22 22 22 22 23 23 23 24 24 25 26 27 29 29 29 29 29 28 28 28 28 28 28 28 27 28 28 27 27 27 28 29 29 29 30 30
16 16 15 15 14 14 14 14 13 12 12 13 14 14 15 16 16 18 19 20 21 22 23 24 24 22 21 20 20 20 22 24 24 25 25 25 24 24 24 23 23 23 23 22 22 21 22 23 23 23 23 23 23 23 23 24 24 24 25 26 27 29 30 30 29 29 28 28 28 28 28 29 28 27 28 28 27 27 28 29 29 30 30 30 29
15 15 15 15 15 15 15 14 13 13 14 14 15 15 16 17 18 19 20 21 21 22 24 25 25 24 23 22 22 22 23 24 24 25 26 26 26 25 25 23 23 23 22 22 21 20 21 23 23 23 24 24 23 23 23 23 24 24 25 26 27 28 29 30 29 29 28 28 29 29 29 29 28 27 27 27 27 28 29 29 30 30 30 30 30
15 15 15 15 15 15 15 14 14 15 15 15 17 17 18 19 19 20 21 22 22 23 24 25 26 26 26 25 24 25 25 25 25 26 27 26 27 27 25 24 24 23 23 22 21 21 22 23 23 24 24 24 23 23 23 23 23 24 24 25 27 28 29 29 28 28 27 27 29 29 29 29 28 28 28 27 27 28 29 30 30 31 31 30 30
16 16 16 15 15 16 16 15 15 16 16 17 19 19 19 19 20 20 21 22 23 24 25 26 26 27 27 27 27 27 27 27 27 27 27 27 28 27 26 25 25 24 24 23 22 22 22 23 24 25 25 24 24 23 23 23 23 23 23 25 26 27 28 27 27 26 26 27 27 28 28 28 28 28 28 28 27 28 30 30 30 31 31 31 31
16 16 16 16 16 16 16 15 16 17 17 18 19 20 20 20 20 21 22 23 24 25 26 27 27 28 28 28 28 28 29 29 29 29 29 28 28 28 27 26 25 25 24 24 23 23 23 23 24 25 25 24 24 24 23 23 23 23 23 24 25 26 26 26 25 25 25 25 26 26 27 28 29 29 28 29 28 28 30 31 31 31 31 31 32
16 15 15 16 16 16 16 16 16 17 18 19 20 20 21 21 22 22 23 24 25 26 27 27 28 28 29 29 29 29 30 30 30 30 30 30 29 28 27 27 26 26 25 25 25 24 24 24 24 24 24 24 24 24 24 23 23 23 23 24 24 25 24 24 24 25 24 23 24 25 26 27 29 29 29 29 29 29 31 31 32 32 32 32 32
16 16 16 16 16 17 17 17 17 18 19 19 20 21 22 22 23 24 24 25 26 26 27 28 28 29 29 29 30 30 30 30 31 31 31 30 30 29 28 28 27 27 27 26 26 25 25 24 24 24 24 24 24 24 24 24 24 23 23 23 23 23 23 23 23 24 24 23 24 25 25 27 29 29 29 29 29 30 31 32 33 34 33 32 32
16 16 16 16 17 17 17 17 18 19 19 20 21 23 23 24 25 25 25 26 26 27 27 28 29 29 29 30 30 30 30 31 31 31 31 31 31 30 29 29 28 28 28 28 27 26 25 25 24 24 24 24 24 24 24 24 24 23 23 23 22 22 22 22 23 24 24 24 25 25 25 26 28 28 29 30 30 30 32 33 34 34 33 32 32
16 16 16 16 17 17 17 17 19 20 20 21 23 24 24 25 25 26 26 26 27 27 28 28 29 29 29 30 30 30 31 31 32 32 32 32 31 30 30 30 29 29 29 28 27 27 26 25 24 24 24 23 24 24 24 24 24 23 23 22 22 22 22 22 23 24 24 24 24 24 24 26 27 29 30 30 30 31 33 34 34 33 32 32 32
16 16 16 16 17 17 18 19 20 20 21 22 23 24 25 26 26 26 26 27 28 28 29 29 29 29 30 30 30 30 31 31 31 32 31 32 31 31 30 30 30 29 29 29 28 27 26 25 25 25 24 24 24 24 24 24 24 23 23 22 22 22 23 23 23 23 23 22 23 24 25 26 28 30 31 31 31 32 33 34 33 33 32 32 32
Wind_Direction
118 117 118 120 120 119 120 120 121 121 121 120 118 116 115 115 116 121 121 117 119 118 115 112 106 96 90 86 84 88 90 89 86 84 85 85 86 86 81 76 73 69 66 61 52 45 33 21 14 7 3 358 352 349 344 343 342 338 339 340 336 338 340 338 323 308 315 329 334 337 343 338 335 337 334 333 338 340 336 335 336 335 334 335 334
120 120 120 121 120 120 121 122 123 124 123 120 119 120 120 118 122 126 124 122 122 120 117 114 108 100 90 88 92 95 94 90 87 85 85 88 88 85 78 72 67 60 52 41 28 17 5 360 357 351 350 352 352 353 349 349 351 345 349 353 346 348 352 343 333 320 317 327 337 337 338 338 335 336 337 335 336 337 334 333 335 336 336 336 333
124 125 123 122 121 122 121 122 124 124 123 120 120 123 124 124 128 128 125 125 124 119 117 112 107 99 92 96 101 99 93 90 88 86 88 90 88 83 74 63 52 40 30 18 7 0 356 357 359 353 351 357 4 4 359 2 5 357 359 6 356 354 2 350 339 332 323 323 331 334 335 336 335 335 337 335 335 335 333 333 336 337 336 333 330
128 128 125 123 124 124 123 123 125 124 121 120 121 125 127 126 127 127 126 126 122 118 114 109 105 98 98 108 110 101 93 89 89 91 92 91 86 78 66 49 36 25 15 7 0 358 359 3 3 357 355 1 11 12 11 14 14 8 5 7 2 354 353 348 340 337 329 323 326 332 333 333 332 335 337 335 334 335 334 336 338 336 333 331 331
131 129 127 125 125 124 124 124 124 123 122 121 122 124 126 126 124 124 127 125 122 121 115 108 108 106 110 118 117 104 92 88 91 94 93 88 80 68 51 36 25 16 8 5 4 2 3 3 357 355 359 8 18 20 20 21 16 11 6 1 359 351 344 343 341 338 333 326 324 329 333 333 331 334 338 335 333 335 336 337 337 335 334 334 334
134 132 130 128 125 124 125 124 123 123 123 123 124 124 124 124 123 122 124 126 124 122 118 113 111 112 118 126 123 104 88 85 90 93 92 83 69 52 37 25 14 9 7 7 9 4 358 355 350 357 11 20 27 27 24 22 14 7 2 355 353 350 345 347 345 341 338 330 326 328 332 334 331 333 339 338 332 333 335 333 334 336 336 335 334
137 135 133 130 127 125 125 125 124 124 124 124 124 125 125 124 123 122 123 126 123 119 117 113 109 114 123 132 127 106 83 77 82 89 92 78 57 37 24 15 7 7 9 9 10 2 352 354 355 9 35 34 31 32 25 14 1 354 354 350 350 351 349 348 347 344 339 334 330 329 330 332 330 331 336 338 334 334 336 332 330 332 334 333 331
139 135 133 130 126 125 126 126 126 125 125 126 126 124 126 126 124 122 123 124 118 112 109 106 107 114 126 136 133 112 83 71 74 84 84 69 44 25 15 9 5 7 10 7 6 4 359 6 16 32 48 42 31 30 23 5 350 344 346 349 350 351 348 347 346 343 339 334 331 329 328 330 330 331 334 337 336 334 336 332 325 325 328 329 328
138 135 132 128 126 127 128 128 128 128 128 130 128 126 125 125 123 120 118 115 109 105 105 104 107 115 127 138 138 120 86 68 73 89 82 62 31 17 11 8 5 5 9 8 6 9 10 22 41 49 55 52 35 21 7 353 347 341 343 350 351 348 345 344 343 340 337 332 328 327 327 326 328 330 331 333 331 329 330 329 322 321 323 323 326
139 137 133 130 131 132 132 130 131 131 132 132 131 129 126 123 121 117 113 111 105 102 106 108 114 119 128 142 144 128 90 69 77 112 96 45 14 15 9 6 6 3 2 4 6 12 18 29 46 48 55 53 19 0 346 339 344 348 349 350 345 340 338 338 337 335 331 326 323 324 322 320 324 326 324 325 327 326 327 327 321 320 322 321 325
141 139 135 135 136 136 134 133 133 133 134 135 133 133 129 124 123 118 114 111 102 102 110 113 118 120 128 144 147 137 98 71 76 121 120 12 349 14 9 2 5 2 357 2 7 9 11 18 27 16 3 351 339 339 342 348 8 9 356 345 336 333 332 330 328 327 325 321 318 318 315 311 318 323 321 323 325 324 324 323 318 318 321 323 323
144 142 140 140 141 139 138 136 136 134 135 137 138 138 135 129 127 123 117 112 103 106 112 110 116 121 125 143 149 142 110 79 75 110 132 27 347 10 6 359 1 1 0 6 7 4 360 355 359 354 343 340 335 336 352 27 27 3 347 340 335 332 330 326 322 321 320 317 314 314 313 310 314 319 322 323 323 321 321 321 319 318 321 322 317
147 144 144 146 145 144 144 141 139 137 137 139 141 142 141 136 132 126 120 117 112 112 110 109 117 120 125 143 149 145 124 91 75 80 107 88 26 5 358 354 358 1 4 9 6 3 357 346 347 354 344 335 336 343 18 31 9 352 341 337 333 330 328 328 328 324 320 316 311 310 314 313 311 316 324 325 322 320 320 320 322 322 319 316 310
150 148 149 151 150 149 149 146 143 141 140 142 145 147 147 140 132 127 124 123 122 119 112 109 113 117 126 142 150 152 138 103 71 38 69 91 15 349 346 347 356 3 6 10 7 1 356 348 347 349 348 348 349 0 31 12 356 345 338 333 329 327 328 331 335 332 328 324 313 310 317 318 314 318 323 323 320 320 321 322 325 322 315 312 310
153 153 154 155 155 156 154 150 148 147 145 147 150 151 150 143 132 130 132 128 125 118 107 101 102 114 127 137 151 163 155 120 74 21 36 115 313 332 340 344 353 2 5 10 10 1 356 352 349 346 350 355 355 29 19 0 345 335 332 328 326 327 330 336 338 333 328 325 316 313 317 318 316 317 318 320 323 323 319 319 320 319 319 318 317
156 158 157 157 159 160 160 156 154 153 152 153 154 154 154 149 137 136 141 134 124 114 98 96 99 111 125 132 146 164 169 151 110 43 23 280 310 335 343 344 349 357 2 7 8 4 358 352 349 347 350 350 353 46 12 349 329 325 327 325 324 327 331 336 334 325 322 319 314 314 313 312 312 313 316 324 330 327 323 323 325 329 329 325 321
159 162 162 162 163 165 165 162 159 158 159 159 158 157 157 153 144 144 150 140 123 109 94 94 98 107 120 127 138 149 163 162 131 67 23 303 321 343 343 343 347 349 356 3 3 0 356 350 346 342 343 346 352 18 358 337 322 322 321 320 322 325 330 333 327 323 324 319 316 316 314 314 315 315 319 327 331 332 332 332 333 335 332 326 320
164 166 165 165 167 167 167 166 164 162 162 162 163 162 160 156 150 150 154 144 121 108 100 96 98 108 118 120 132 136 142 160 146 85 27 325 326 342 339 339 342 342 347 355 355 353 348 344 343 338 336 342 344 344 339 328 320 318 316 319 323 326 332 333 326 324 324 320 318 318 319 320 322 323 326 329 332 337 337 332 331 331 326 320 315
169 170 168 166 168 168 166 165 164 163 163 163 164 164 162 158 151 148 149 144 126 116 111 108 104 111 126 122 125 134 133 157 165 121 31 346 329 335 336 335 335 337 342 344 345 348 345 341 344 340 335 336 338 340 337 328 321 318 318 323 326 330 335 331 324 323 321 319 321 323 324 327 328 329 332 334 336 339 336 330 328 325 320 315 312
171 170 168 166 166 166 164 165 164 164 165 165 165 163 161 157 150 145 145 143 137 126 119 120 114 113 134 138 130 139 141 155 175 174 58 5 336 329 332 334 333 333 336 337 338 341 343 344 346 344 339 337 342 354 350 336 323 317 320 329 334 334 329 319 314 318 318 319 322 324 325 329 331 332 335 336 337 338 334 329 326 321 317 311 308
170 169 167 166 166 164 162 164 164 163 164 166 165 162 158 156 151 147 147 146 144 140 129 128 130 122 139 158 155 163 184 176 193 204 191 37 341 330 330 333 332 326 326 331 335 337 340 344 346 344 342 343 352 357 344 326 314 313 325 338 333 322 314 309 311 317 318 320 323 324 327 331 333 334 336 335 335 334 330 327 324 320 316 309 306
171 170 167 165 165 163 163 164 163 162 164 165 165 162 157 157 154 149 151 150 148 153 149 136 137 134 139 165 178 195 230 247 245 235 226 231 308 334 331 324 319 317 320 327 333 336 338 339 341 343 343 344 345 341 327 313 309 317 330 329 317 309 310 313 317 319 321 324 326 327 330 333 334 334 334 332 332 331 328 326 324 321 316 310 304
173 171 167 165 165 165 164 164 163 164 165 164 164 162 158 160 160 154 157 160 155 156 156 141 135 137 139 160 195 240 274 295 296 289 275 259 263 318 321 307 304 312 321 327 331 333 333 335 338 339 339 338 334 326 319 316 318 324 326 321 317 318 319 319 321 323 326 329 331 330 331 333 332 330 330 330 329 329 328 327 326 324 321 317 311
173 170 168 167 167 166 164 165 165 165 165 164 162 159 158 161 162 160 166 173 166 158 158 152 135 130 143 162 198 270 290 306 306 301 302 293 282 291 300 298 304 317 321 324 327 328 329 332 334 333 332 331 328 323 323 326 326 324 326 326 325 325 324 324 327 330 331 332 332 329 329 330 329 328 328 328 327 328 329 329 328 328 327 323 320
172 170 169 168 168 167 165 165 165 164 164 164 162 159 160 163 162 163 175 178 172 166 161 174 192 274 293 248 249 272 285 304 311 305 305 305 304 304 303 306 316 321 320 321 324 325 325 326 326 326 327 329 328 327 327 329 327 327 330 331 329 329 330 331 333 333 332 332 330 327 326 329 329 328 328 328 328 330 332 331 331 332 331 328 324
174 173 172 170 169 169 167 165 165 166 165 166 168 168 168 170 169 170 178 181 183 192 202 248 286 301 308 306 307 304 302 310 311 304 306 309 309 307 308 313 320 321 320 321 321 319 319 321 322 326 328 329 327 326 326 327 327 328 331 334 334 335 336 336 336 334 332 330 327 325 326 329 330 330 331 330 330 332 334 332 330 331 332 330 325
178 176 174 172 171 170 169 166 166 168 168 169 175 177 178 180 180 180 189 200 210 225 245 273 295 304 304 305 307 306 306 317 318 310 307 308 307 306 311 319 324 322 321 320 320 318 319 322 324 326 326 325 322 321 322 324 325 328 334 337 337 338 339 338 336 333 330 328 326 326 328 330 330 331 332 330 330 332 335 332 327 327 330 329 324
180 178 175 174 172 170 170 169 169 171 173 175 180 182 183 189 195 195 206 224 230 238 258 273 289 298 298 302 308 307 305 318 325 318 314 315 315 317 320 322 323 322 321 321 321 320 319 320 322 323 323 322 320 320 322 323 325 329 334 337 337 339 339 337 335 334 333 330 328 327 329 329 329 330 330 328 327 330 333 331 327 325 326 327 322
179 177 175 174 174 171 171 174 176 177 179 180 183 187 193 208 218 216 221 238 244 246 256 267 277 286 289 296 306 307 307 315 322 319 317 319 319 316 315 315 315 314 316 318 317 315 314 314 317 321 323 323 322 322 324 325 326 329 333 335 336 337 338 337 336 336 334 331 329 327 328 327 327 329 329 326 326 329 331 329 326 324 324 322 317
177 178 178 176 174 173 173 175 177 179 183 186 190 197 209 224 233 230 223 234 248 258 265 273 283 289 292 298 304 304 305 311 316 315 314 315 315 311 307 306 306 307 310 313 310 307 308 310 313 318 321 321 320 322 325 326 326 327 330 332 334 335 336 336 336 335 332 331 329 327 326 326 326 327 326 323 323 326 328 327 325 323 321 319 315
178 179 181 179 177 176 175 176 178 180 185 192 198 205 216 229 243 253 251 247 253 261 270 278 285 287 289 294 298 299 301 305 309 311 311 309 305 302 300 299 299 303 308 310 304 301 303 305 309 314 317 317 317 319 322 323 323 325 327 328 330 332 333 333 334 332 330 329 328 327 326 326 324 324 323 321 321 323 324 324 324 322 319 316 312
183 182 182 181 181 180 179 181 186 185 186 196 206 213 224 231 235 247 260 266 266 268 272 276 279 277 276 280 285 289 294 297 299 299 298 295 293 294 294 293 293 299 306 304 297 297 299 301 304 308 312 312 314 316 318 318 320 321 323 323 326 328 330 330 331 329 327 328 327 326 325 325 323 322 321 321 320 320 320 322 322 320 318 315 312
188 185 183 182 183 183 183 188 193 194 195 203 210 220 241 256 249 243 248 256 263 270 275 276 276 275 275 278 282 285 288 291 292 290 289 289 290 292 293 292 291 295 299 298 295 296 298 298 299 303 307 308 311 314 315 315 316 318 318 319 321 324 326 328 327 326 326 326 325 323 323 323 323 321 321 320 319 317 317 318 319 319 317 315 313
188 188 186 186 186 186 187 193 198 201 206 211 218 228 245 267 281 282 278 274 271 268 264 264 267 271 275 279 284 287 287 287 287 288 288 289 290 292 293 292 289 288 289 292 293 295 296 297 297 300 303 306 309 311 312 313 314 315 315 316 318 320 323 325 325 325 325 325 323 322 323 323 322 320 319 319 318 316 315 315 317 317 316 314 313
185 187 189 191 190 190 193 198 203 209 213 217 227 239 251 265 278 289 298 300 297 292 283 274 274 281 285 288 290 291 291 290 290 290 290 289 290 292 291 288 286 286 288 291 293 296 297 297 298 300 302 304 306 308 309 311 312 312 313 315 316 318 320 322 322 323 323 322 321 322 322 321 320 320 318 316 315 314 313 314 315 314 313 313 312
187 189 190 192 193 195 200 204 210 217 222 227 235 245 258 270 277 286 293 296 298 299 297 296 296 295 296 301 303 299 296 295 295 294 292 291 290 288 285 284 286 289 292 293 295 298 298 298 298 300 300 301 303 306 307 308 308 310 311 312 314 315 317 318 319 320 320 319 319 319 319 319 319 320 319 315 313 311 311 311 312 312 312 311 311
191 192 191 193 195 200 205 209 215 221 227 235 243 251 263 272 278 285 290 291 294 297 298 302 305 304 304 312 316 310 304 301 298 296 294 293 291 286 282 283 286 289 291 293 296 298 298 297 298 299 299 300 302 303 305 305 306 307 309 310 311 312 313 315 316 316 315 315 316 317 318 318 319 320 318 313 311 310 310 311 311 310 311 312 311
197 196 195 197 201 206 210 215 220 225 231 239 248 259 270 276 280 284 288 292 295 296 298 302 305 305 309 317 319 315 309 304 299 297 297 295 293 290 287 286 287 287 289 293 296 297 297 297 298 298 297 298 300 301 302 304 304 305 307 308 309 310 311 312 313 313 313 314 315 317 317 317 318 319 316 311 308 308 309 310 310 310 310 312 311
200 201 202 204 207 211 217 222 225 230 237 245 255 265 273 279 283 286 289 293 295 295 297 300 301 303 309 315 318 316 311 306 303 303 303 302 300 300 298 296 293 293 294 295 297 298 297 297 297 297 296 296 298 299 300 302 303 304 306 307 307 308 309 310 311 312 312 313 313 315 315 315 316 317 314 309 307 307 308 308 308 308 308 309 308
198 200 203 207 211 215 222 228 230 235 243 252 261 269 274 278 282 287 291 293 293 294 296 297 298 303 310 313 315 314 310 306 306 306 306 305 306 305 303 301 299 298 298 299 299 299 298 297 296 296 295 295 296 298 299 301 302 303 304 305 306 306 307 308 308 309 310 311 312 313 313 313 314 314 311 307 306 307 306 305 306 306 306 306 306
199 201 205 210 216 221 228 233 236 242 251 258 264 269 273 278 285 289 291 291 292 295 297 296 298 305 310 311 312 312 306 303 304 304 303 304 305 304 303 302 301 300 300 301 300 299 298 297 297 296 295 295 296 298 299 301 302 303 304 305 304 304 305 306 306 307 308 309 310 311 311 312 312 310 307 307 307 306 304 304 304 306 306 306 306
201 204 209 214 220 226 234 240 245 250 255 260 266 272 278 284 288 290 290 292 293 295 296 297 301 306 309 309 310 309 304 301 301 301 301 302 303 303 303 303 302 303 302 302 302 300 299 297 296 296 296 296 298 299 299 299 301 302 302 303 302 302 303 304 305 306 307 308 309 309 309 309 308 306 305 305 305 305 304 304 305 306 306 306 306
205 209 215 220 226 234 241 246 250 255 260 266 274 280 284 287 288 289 289 291 292 294 295 298 302 306 307 308 309 307 303 302 302 302 303 304 304 304 305 305 305 305 304 303 302 301 299 297 296 296 296 296 297 298 297 298 300 300 300 300 300 300 300 301 303 305 307 307 307 307 307 306 306 305 304 304 304 304 304 304 305 306 306 306 306
209 214 220 225 231 239 245 250 255 262 268 275 279 282 283 285 286 287 289 290 292 295 296 298 302 305 306 308 308 306 304 304 304 304 304 305 305 305 306 307 307 306 304 303 303 302 300 298 296 296 296 296 297 297 297 297 297 297 297 297 298 297 298 300 303 305 306 305 304 305 305 305 304 303 302 302 303 303 303 304 305 306 306 306 306
215 219 225 230 236 242 248 254 261 267 272 276 278 280 282 283 285 287 289 291 293 295 297 298 301 303 304 306 307 306 305 305 305 305 305 305 305 306 307 307 307 306 304 304 303 302 300 299 297 297 297 297 297 297 297 296 296 296 295 295 295 295 297 300 302 304 304 303 302 303 303 303 302 301 300 301 302 302 302 303 304 304 304 304 304
220 225 230 236 241 247 253 258 263 267 271 274 277 280 283 285 287 290 291 293 294 296 298 300 301 301 302 304 305 305 305 305 304 304 305 305 305 306 307 307 306 305 304 303 303 302 300 299 298 297 297 297 298 298 297 296 297 296 295 294 294 294 297 301 302 302 301 300 300 301 300 299 299 299 298 299 301 300 300 301 302 302 302 302 302
225 231 236 242 247 252 257 261 265 268 271 274 278 282 285 289 291 292 293 294 295 297 298 299 300 301 302 302 303 303 304 305 304 304 304 305 305 306 307 306 305 304 303 303 302 301 300 299 299 298 298 298 297 297 297 297 297 296 295 295 295 296 298 300 300 299 299 298 298 298 297 297 297 297 297 298 299 299 299 300 301 301 301 301 300
230 234 240 245 250 255 259 263 266 270 274 278 282 285 287 290 291 292 293 295 296 297 298 299 300 301 301 302 303 304 304 304 304 304 304 304 305 306 306 305 304 304 303 302 301 300 300 300 299 298 297 297 296 297 297 297 297 296 295 296 296 297 298 299 298 297 297 296 296 295 294 293 294 294 295 296 296 297 298 299 300 301 302 301 301
233 237 243 248 252 257 262 266 270 274 278 281 284 286 288 290 291 293 295 296 296 298 299 299 300 301 302 302 303 304 304 303 303 303 304 304 305 305 304 303 303 302 301 300 300 300 300 300 299 298 297 296 296 296 296 296 296 296 295 296 297 297 296 296 295 295 295 294 292 291 290 290 291 292 293 294 294 295 296 297 298 300 301 300 300
235 240 246 251 255 261 265 269 273 276 280 283 285 287 289 291 292 293 295 296 297 298 299 299 300 301 301 301 302 303 303 303 302 303 303 304 304 304 303 303 302 300 300 299 299 299 299 298 298 297 296 295 295 294 294 295 295 295 295 296 296 295 294 294 293 293 293 291 289 288 286 287 289 290 291 292 292 293 294 296 298 299 299 298 299
239 244 249 253 258 263 267 269 273 278 282 284 286 288 289 291 293 294 295 295 296 298 299 300 300 300 300 301 301 302 302 302 303 303 303 303 303 303 303 302 301 300 299 298 297 297 297 296 296 295 295 294 294 293 293 293 294 294 295 295 294 293 293 293 292 292 291 288 286 284 284 285 287 288 289 289 290 291 293 296 297 297 297 297 297